Regional Weather Roundup
Issued by NWS Glasgow, MT

Home | Current Version | Previous Version | Text Only | Print | Product List | Glossary On
Versions: 1 2 3 4 5 6 7 8 9 10 11 12 13 14 15 16 17 18 19 20 21 22 23 24 25 26 27 28 29 30 31 32 33 34 35 36 37 38 39 40 41 42 43 44 45 46 47 48 49 50
000
ASUS45 KGGW 252115
RWRGGW
HOURLY WEATHER ROUNDUP FOR NORTHEAST MONTANA
NATIONAL WEATHER SERVICE GLASGOW MONTANA
300 PM MDT MON MAY 25 2015

NOTE: "FAIR" INDICATES FEW OR NO CLOUDS BELOW 12,000 FEET WITH NO
SIGNIFICANT WEATHER AND/OR OBSTRUCTIONS TO VISISBILITY.

NORTHEAST MONTANA


CITY           SKY/WX    TMP DP  RH WIND       PRES   REMARKS
GLASGOW        SUNNY     77  37  23 E13       29.83F
WOLF POINT     PTSUNNY   72  48  42 SE10G21   29.86R
JORDAN           N/A     74  41  30 S7        29.85S
WINNETT          N/A     71  43  36 NE3         N/A
SIDNEY         MOSUNNY   72  46  40 CALM      29.88R
GLENDIVE       CLOUDY    64  46  52 SE12      29.91S
MALTA            N/A     80  42  25 S6          N/A
SCOBEY           N/A     76  38  25 SE6       29.86S

FORT PECK REPORTS


CITY           SKY/WX    TMP DP  RH WIND       PRES   REMARKS
FORT PECK        N/A     74  42  31 SW7         N/A
THE PINES        N/A     76  39  26 NE5         N/A

SOUTHEAST MONTANA


CITY           SKY/WX    TMP DP  RH WIND       PRES   REMARKS
BILLINGS       MOSUNNY   67  43  41 CALM      29.90F
MILES CITY     CLOUDY    66  51  58 E12       29.89R
BAKER          CLOUDY    61  52  72 E14       29.92R
LIVINGSTON     MOSUNNY   69  42  37 E7        29.90S

CENTRAL MONTANA


CITY           SKY/WX    TMP DP  RH WIND       PRES   REMARKS
HAVRE          MOSUNNY   76  33  21 SE9       29.84S
LEWISTOWN      PTSUNNY   68  44  42 VRB6      29.90S
GREAT FALLS    SUNNY     70  41  34 VRB3      29.86F
CUT BANK       MOSUNNY   70  40  33 S13       29.86F
HELENA         MOSUNNY   70  40  33 VRB3      29.86F
BUTTE          MOSUNNY   66  29  24 VRB3      29.90F
BOZEMAN        MOSUNNY   67  44  43 CALM      29.90F

WESTERN MONTANA


CITY           SKY/WX    TMP DP  RH WIND       PRES   REMARKS
MISSOULA       LGT RAIN  61  45  55 W20G28    29.90R
KALISPELL      NOT AVBL

NORTH DAKOTA


CITY           SKY/WX    TMP DP  RH WIND       PRES   REMARKS
WILLISTON      PTSUNNY   75  42  30 W3        29.84F
DICKINSON      CLOUDY    66  49  54 SE9       29.88S
MINOT          CLOUDY    75  42  30 NW7       29.81S
BISMARCK       PTSUNNY   68  55  63 W10       29.85S

SOUTHERN SASKATCHEWAN


CITY           SKY/WX    TMP DP  RH WIND       PRES   REMARKS
REGINA         PTSUNNY   77  41  27 SW12      29.84S
MOOSE JAW      PTSUNNY   75  37  25 SE15      29.83R
ESTEVAN        CLOUDY    75  39  27 S5        29.83S
SWIFT CURRENT  CLOUDY    77  34  20 SE8G22    29.86R



USA.gov is the U.S. government's official web portal to all federal, state and local government web resources and services.